Regional Weather Roundup
Issued by NWS

Home | Current Version | Previous Version | Text Only | Print | Product List | Glossary Off
Versions: 1 2 3 4 5 6 7 8 9 10 11 12 13 14 15 16 17 18 19 20 21 22 23 24 25 26 27 28 29 30 31 32 33 34 35 36 37 38 39 40 41 42 43 44 45 46 47 48 49 50

000
ASUS43 KOAX 271610
RWRNE

WEATHER ROUNDUP FOR NEBRASKA
NATIONAL WEATHER SERVICE OMAHA NE
1100 AM CDT THU JUL 27 2017

NOTES: SATELLITE DATA IS BEING USED TO AUGMENT CLOUD COVER ABOVE
       12000 FEET.
       "FAIR" INDICATES FEW OR NO CLOUDS BELOW 12,000 FEET WITH NO
       SIGNIFICANT WEATHER AND/OR OBSTRUCTIONS TO VISIBILITY.


NEZ001>004-019>022-054>056-271700-
NEBRASKA PANHANDLE

CITY           SKY/WX    TMP DP  RH WIND       PRES   REMARKS
SCOTTSBLUFF    CLOUDY    74  65  73 SE12      30.20S
ALLIANCE       CLOUDY    73  60  63 SE16      30.22R
CHADRON        CLOUDY    73  61  65 SE12      30.16R
GORDON         LGT RAIN  66  61  83 SW3       30.21S
KIMBALL        CLOUDY    71  63  78 SE13      30.26S
SIDNEY         CLOUDY    72  64  76 SE13      30.24F
$$

NEZ057>060-069>072-079>082-271700-
SOUTHWEST NEBRASKA

CITY           SKY/WX    TMP DP  RH WIND       PRES   REMARKS
NORTH PLATTE   PTSUNNY   74  60  61 SE6       30.20R
IMPERIAL       CLOUDY    72  63  73 E10       30.21R
LEXINGTON      CLOUDY    73  61  66 E6        30.17S
MCCOOK         PTSUNNY   77  66  68 E8        30.16F
OGALLALA       CLOUDY    72  64  77 SE8       30.21S
$$

NEZ005>010-023>029-035>040-094-271700-
NORTH CENTRAL NEBRASKA

CITY           SKY/WX    TMP DP  RH WIND       PRES   REMARKS
VALENTINE      CLOUDY    76  55  48 S9        30.18F
AINSWORTH      CLOUDY    75  59  58 SE6       30.18F
BROKEN BOW     MOSUNNY   76  60  57 E10       30.18R
O`NEILL        SUNNY     74  62  64 E7        30.17S
ORD            SUNNY     76  57  51 NE8       30.14S
THEDFORD       MOSUNNY   76  58  53 SE10      30.21S
$$

NEZ041-046>049-061>064-073>077-083>087-271700-
SOUTH CENTRAL NEBRASKA

CITY           SKY/WX    TMP DP  RH WIND       PRES   REMARKS
GRAND ISLAND   MOSUNNY   75  64  68 NE8       30.13F
AURORA         CLOUDY    75  66  73 NE8       30.12S
HASTINGS       CLOUDY    75  65  70 NE10      30.14R
HEBRON         MOSUNNY   82  68  63 NE9       30.08S
HOLDREGE       CLOUDY    71  64  77 NE6       30.15S
KEARNEY        CLOUDY    74  64  71 VRB7      30.15S
YORK           SUNNY     75  64  69 NE12      30.11S
$$

NEZ011>018-030>034-042>045-271700-
NORTHEAST NEBRASKA

CITY           SKY/WX    TMP DP  RH WIND       PRES   REMARKS
NORFOLK        MOSUNNY   77  60  55 NE10      30.13R
ALBION         MOSUNNY   75  63  65 NE7       30.14S
BLAIR          SUNNY     76  67  71 NE10      30.08S
COLUMBUS       MOSUNNY   77  64  64 NE10      30.12R
FREMONT        SUNNY     77  64  63 N7        30.10R
TEKAMAH        SUNNY     78  66  66 N7        30.08R
WAYNE          MOSUNNY   76  67  71 E8        30.12S
$$

NEZ050>053-065>068-078-088>093-271700-
SOUTHEAST NEBRASKA

CITY           SKY/WX    TMP DP  RH WIND       PRES   REMARKS
LINCOLN        SUNNY     78  66  66 NE8       30.08S
OMAHA EPPLEY   MOSUNNY   80  65  59 N9        30.07R
BEATRICE       MOSUNNY   78  70  76 NE9       30.07S
FALLS CITY     PTSUNNY   79  71  76 NE7       30.02S
NEBRASKA CITY  MOSUNNY   77  73  88 NE6       30.05F
PLATTSMOUTH    SUNNY     77  65  66 NE8       30.06S
$$

NEZ044-045-051>053-067-271700-
OMAHA AREA

CITY           SKY/WX    TMP DP  RH WIND       PRES   REMARKS
OMAHA EPPLEY   MOSUNNY   80  65  59 N9        30.07R
BLAIR          SUNNY     76  67  71 NE10      30.08S
FREMONT        SUNNY     77  64  63 N7        30.10R
MILLARD        SUNNY     80  66  62 NE5       30.07S
OFFUTT AFB     SUNNY     79  66  63 NE7       30.06R
PLATTSMOUTH    SUNNY     77  65  66 NE8       30.06S
WAHOO          FAIR      77  67  71 NE9       30.09R
$$




USA.gov is the U.S. government's official web portal to all federal, state and local government web resources and services.